GFSSW_925_thetae_108.txt.gz
Theta_e
306 306 306 306 305 305 304 298 295 295 295 296 296 296 297 298 299 302 307 305 308 313 313 315 315 315 316 315 314 310 310 311 314 313 314 315 316 317 317 317 318 318 318 318 332
304 304 304 304 304 305 304 297 296 295 295 295 295 296 297 300 305 309 311 311 310 311 314 314 313 315 315 315 314 311 309 312 313 313 314 316 316 315 316 318 318 318 319 333 335
303 303 304 303 303 303 302 299 298 297 296 295 295 295 298 302 310 310 313 313 311 311 312 311 312 314 316 315 314 312 313 312 313 313 313 314 313 313 315 314 314 316 317 334 334
301 302 303 303 303 303 300 300 299 298 296 295 295 296 300 307 302 314 313 311 311 311 313 314 313 312 313 315 314 316 315 313 313 313 313 314 314 313 313 314 315 313 314 333 334
302 302 302 303 303 302 301 300 299 298 297 296 295 298 304 310 311 304 308 309 308 310 316 317 316 316 316 315 314 316 316 316 315 314 313 313 313 314 314 313 314 314 315 327 333
302 302 302 302 302 302 300 299 299 298 296 296 296 304 308 308 304 309 308 308 309 310 310 310 312 313 313 314 315 316 316 316 315 315 315 316 316 314 315 315 315 316 316 315 326
302 301 301 300 299 299 299 298 298 296 297 298 300 307 309 305 302 307 308 310 307 308 307 307 309 309 310 311 312 312 312 310 314 316 315 314 316 314 313 313 314 316 316 315 314
303 302 300 299 299 298 298 298 297 300 302 302 303 309 308 303 306 309 310 310 308 307 306 307 307 307 309 309 309 310 310 313 316 315 316 316 318 317 315 316 317 318 318 316 314
301 300 301 300 299 298 298 301 303 305 304 304 307 308 312 311 312 309 310 308 309 310 309 306 306 305 306 307 305 308 312 313 313 311 312 314 315 316 316 317 317 317 317 316 315
300 300 300 300 299 298 301 303 306 305 307 307 309 311 310 309 309 306 306 306 307 307 311 305 304 303 302 303 310 307 308 309 309 311 313 314 315 315 315 316 316 317 317 315 314
298 299 299 299 298 298 301 303 302 302 302 305 308 311 310 310 308 305 304 306 307 307 309 313 306 305 303 303 308 306 305 304 305 307 310 312 314 313 314 315 316 317 318 314 315
297 299 299 298 298 299 300 301 302 302 304 303 303 303 302 304 305 305 304 306 307 306 309 313 313 310 307 304 304 304 304 304 305 306 309 311 311 311 314 316 316 317 318 316 316
298 299 298 299 298 299 298 300 302 302 303 303 302 302 303 303 302 302 304 307 307 307 311 313 314 314 311 310 306 305 304 304 307 309 309 312 313 313 315 317 317 317 316 316 316
297 296 298 299 298 298 300 300 301 302 304 304 305 305 305 305 304 303 304 307 307 307 309 311 312 313 313 313 312 313 311 310 312 312 314 311 313 312 312 314 316 316 316 316 317
298 296 298 299 298 298 298 299 301 304 299 304 308 306 306 310 311 312 306 308 308 307 308 309 307 309 311 312 311 312 311 312 313 312 311 312 312 312 313 314 315 315 315 315 314
297 296 297 298 298 298 298 300 302 304 302 304 310 309 311 311 310 312 309 309 310 309 308 308 308 308 307 308 307 309 311 314 314 312 314 313 312 314 312 314 315 316 316 317 315
297 296 296 298 298 297 298 300 300 306 302 303 302 302 303 311 311 311 311 310 311 312 312 310 309 308 308 308 308 309 312 314 316 315 315 313 314 314 313 314 316 319 319 321 321
297 296 295 295 296 297 299 300 303 300 302 302 302 302 303 305 311 311 310 310 310 310 310 312 312 309 310 308 308 307 308 312 318 317 315 314 316 318 316 317 322 324 323 322 320
296 295 296 295 296 297 299 301 299 300 298 300 302 302 303 303 302 303 304 305 309 310 312 312 312 310 311 311 310 309 311 310 313 315 317 316 315 314 314 324 324 324 324 322 328
296 296 295 297 297 299 300 300 299 299 299 300 300 302 302 301 301 301 301 303 306 308 307 305 309 306 307 309 312 311 308 310 312 317 315 317 317 317 320 323 324 325 324 322 324
295 294 296 298 298 300 300 299 299 299 299 299 301 300 301 301 300 300 302 302 302 302 301 301 304 306 307 309 309 314 316 316 309 316 316 319 317 322 323 322 322 324 323 321 321
295 294 295 297 299 300 300 299 301 301 300 301 300 300 301 300 300 299 301 301 301 302 302 303 301 301 303 303 306 313 313 315 318 314 316 316 315 314 322 323 322 321 319 320 319
296 296 295 296 289 300 300 300 300 300 301 301 300 302 301 299 299 301 300 301 301 302 303 302 302 308 303 304 309 310 310 307 315 316 317 316 313 314 317 322 321 321 321 320 319
293 291 291 296 296 297 298 299 299 299 300 301 301 302 301 300 300 300 301 301 302 301 307 305 304 304 305 307 304 303 304 304 313 313 315 313 317 313 312 319 321 318 320 319 319
293 292 294 289 293 298 299 299 300 300 299 302 302 302 301 299 299 299 300 304 304 306 305 304 304 304 304 304 303 302 302 302 303 307 313 311 310 310 312 317 320 319 318 317 317
291 292 294 295 295 296 297 299 299 300 302 303 302 302 303 302 299 300 304 305 305 304 305 305 304 304 304 304 304 304 303 303 303 303 304 306 308 309 314 313 317 317 321 323 324
294 293 294 293 294 295 296 299 301 300 301 301 302 303 304 303 303 303 303 303 304 304 303 305 305 305 305 305 305 306 304 303 303 304 305 305 308 317 318 319 321 323 322 322 320

GFSSW_925_thetae_114.txt.gz
Theta_e
305 305 305 305 305 305 305 305 301 300 301 302 304 302 297 296 298 302 305 303 304 306 309 314 313 313 314 313 309 306 310 311 312 312 312 312 313 313 312 313 312 314 319 322 323
305 305 305 305 306 305 305 303 301 303 304 304 303 302 296 298 305 307 305 305 304 308 312 313 312 312 311 313 311 310 310 311 311 310 312 313 313 312 313 312 313 313 313 323 329
305 305 305 305 305 305 303 300 299 303 304 304 304 302 297 299 305 301 312 311 308 309 312 312 312 313 314 312 312 311 312 310 311 310 311 311 311 311 312 311 312 313 312 326 330
304 304 304 304 304 303 301 300 299 299 300 302 304 304 297 305 299 306 312 310 311 311 312 310 310 310 312 313 312 313 310 311 311 312 312 311 312 312 310 311 312 310 309 317 330
303 303 303 303 304 301 300 299 298 300 301 303 304 305 300 301 300 301 302 303 305 311 311 312 310 310 310 310 311 313 314 313 313 314 313 312 312 313 310 309 310 310 311 311 322
302 301 300 300 300 299 299 298 300 301 301 302 305 305 306 299 300 302 308 306 308 311 311 313 313 311 313 313 314 314 313 313 312 313 312 314 313 312 313 312 311 311 312 313 317
301 300 299 299 298 298 298 299 302 302 303 304 306 305 306 299 300 301 303 305 303 308 307 308 307 307 307 309 309 310 310 309 309 311 312 312 313 312 311 311 312 314 313 313 313
300 299 297 297 297 298 298 301 302 302 306 305 305 305 304 300 303 304 305 303 303 306 308 306 306 305 305 306 307 308 309 310 312 310 312 313 316 315 314 311 311 311 311 312 312
299 298 297 296 296 298 299 302 302 304 307 305 306 306 303 304 308 309 308 310 310 309 308 306 304 303 304 305 307 306 309 309 310 311 313 312 313 309 308 307 308 310 310 310 310
299 297 297 296 297 298 300 302 302 303 304 307 308 307 305 307 309 307 305 309 305 306 306 303 301 301 300 304 308 309 308 307 309 309 309 308 307 305 303 305 307 307 308 308 308
298 297 298 296 297 298 301 301 299 300 299 300 300 304 306 304 304 305 305 305 304 305 306 307 303 301 300 305 307 307 307 306 306 306 305 306 304 302 303 303 305 306 306 307 309
298 297 296 295 297 297 300 298 298 297 299 300 301 301 301 302 302 302 302 303 304 304 305 305 308 305 302 303 304 304 304 305 303 303 303 302 303 304 305 306 306 307 308 308 309
298 297 295 295 297 298 298 297 297 298 300 301 302 302 303 303 303 303 302 302 303 304 305 305 304 306 307 305 303 302 302 303 304 304 304 304 308 309 308 307 310 309 309 309 309
298 296 296 295 297 297 297 297 297 299 301 299 303 304 303 302 303 302 301 303 303 302 303 304 304 304 311 311 308 310 306 307 309 306 310 309 311 309 309 310 310 308 307 306 306
297 295 296 295 297 296 297 296 298 300 293 298 304 304 303 305 304 307 301 301 301 305 306 304 308 306 305 308 311 312 309 308 308 309 309 309 309 308 308 309 308 308 308 310 316
296 295 295 295 295 296 295 297 299 291 293 298 301 300 299 301 302 303 303 303 302 302 305 304 306 308 309 310 310 309 309 308 309 308 310 309 308 308 308 310 310 312 317 319 318
295 294 294 294 294 294 295 297 290 292 295 298 299 298 298 301 301 301 302 305 307 308 308 308 307 307 307 308 306 306 307 308 306 313 310 309 309 309 308 309 319 320 320 319 317
294 293 293 294 295 294 297 295 293 295 297 298 298 298 300 299 299 300 300 300 302 302 309 311 310 307 307 308 308 306 307 310 309 308 306 310 311 310 311 316 318 319 320 319 317
293 293 294 296 296 296 293 295 294 298 298 299 297 297 300 299 298 299 299 299 300 300 302 311 311 307 306 308 310 309 309 308 308 307 310 307 308 308 313 315 317 316 318 318 316
293 293 295 297 297 296 292 296 297 298 298 298 298 300 300 299 297 297 300 302 301 300 300 304 310 305 306 310 305 310 311 310 310 313 312 308 311 311 318 319 318 316 316 315 314
294 289 296 297 298 294 290 295 297 297 299 300 300 300 299 299 298 299 300 301 301 301 300 301 302 305 304 304 304 308 311 312 313 313 316 316 309 314 311 318 318 317 316 315 315
292 285 293 294 296 295 295 297 299 298 298 299 299 300 299 299 299 299 300 300 300 301 301 301 301 304 302 303 303 311 312 313 313 316 314 315 313 310 306 308 310 318 318 318 317
288 290 294 294 285 286 293 298 297 297 296 300 300 300 299 300 300 301 300 300 300 301 302 303 304 301 303 306 303 306 303 309 310 311 311 312 311 308 305 305 304 316 316 318 317
286 286 288 293 291 295 295 295 297 297 297 298 299 299 299 300 299 301 302 301 302 303 306 305 303 302 301 302 302 301 301 301 308 306 306 309 305 302 302 304 303 305 315 317 318
289 287 291 290 290 295 295 295 295 295 298 299 299 300 300 302 302 302 301 299 301 304 303 304 302 301 301 302 302 301 301 301 301 303 303 300 299 300 300 301 302 303 315 316 316
291 288 293 293 294 294 293 294 294 295 299 299 301 300 301 302 301 304 301 302 301 302 302 302 303 303 303 302 302 303 302 302 302 302 301 301 301 301 301 301 301 308 316 318 317
291 293 291 291 292 293 292 293 296 297 299 300 301 301 302 302 301 301 300 300 301 301 302 301 301 303 301 302 302 301 300 300 301 301 301 302 301 300 301 303 314 317 318 318 317

GFSSW_925_thetae_117.txt.gz
Theta_e
306 306 306 306 306 306 305 304 301 301 305 305 302 299 297 296 297 301 303 302 303 305 305 312 311 313 313 313 312 310 315 314 312 313 313 314 315 314 314 315 314 315 318 318 321
305 305 305 305 305 305 305 303 300 300 300 304 304 299 296 298 303 306 307 311 308 307 310 313 313 314 315 315 313 315 315 313 314 313 313 314 314 315 315 315 316 316 316 315 325
305 305 305 305 305 305 305 300 300 301 302 303 304 301 298 298 305 301 310 310 304 310 311 312 312 313 314 314 314 314 315 313 313 313 313 313 313 314 315 316 317 318 318 317 321
303 303 304 304 304 304 303 300 299 300 301 304 303 304 301 304 300 306 310 305 310 309 311 310 312 314 313 315 315 314 313 314 313 313 314 314 314 316 315 317 317 317 316 313 316
303 303 302 302 302 302 300 298 298 300 301 302 305 305 301 300 299 300 300 304 306 312 310 311 311 311 312 311 313 314 314 313 313 314 314 314 316 316 315 315 314 313 313 315 315
301 301 301 300 297 296 297 297 299 301 301 303 306 306 305 299 299 300 302 306 307 311 312 312 312 311 312 313 313 315 314 314 314 314 315 316 316 315 315 314 313 314 316 315 316
300 300 299 296 295 295 296 297 300 301 303 305 305 305 306 301 299 300 300 300 302 305 310 309 311 309 310 310 311 311 312 312 311 313 314 314 315 314 316 315 313 314 316 316 316
301 300 298 296 295 296 296 298 300 301 305 305 305 305 305 301 302 306 308 308 306 303 304 307 305 307 307 307 308 309 310 312 312 311 313 314 317 317 312 312 310 310 311 313 315
299 299 299 295 295 296 298 299 301 302 305 306 305 305 305 302 306 309 306 308 309 307 306 306 305 306 305 306 307 308 311 311 312 312 314 315 316 314 310 307 308 309 310 311 312
299 299 299 295 296 298 300 300 301 303 301 305 307 305 304 306 306 305 304 306 306 306 306 305 304 305 304 306 306 308 309 309 311 310 310 312 313 311 307 306 307 308 309 311 312
299 298 298 295 297 299 300 300 298 300 298 300 299 300 300 301 301 302 304 303 305 306 307 306 306 306 306 307 306 308 309 310 308 308 309 310 309 308 307 305 307 309 310 311 313
299 298 295 294 297 298 298 297 297 296 300 299 299 300 300 301 301 302 301 302 305 306 305 308 310 309 304 304 305 306 308 309 307 307 306 307 308 308 308 308 309 310 311 312 313
298 296 294 294 297 296 297 296 296 297 299 300 301 302 302 302 303 303 302 301 303 306 306 306 306 306 306 305 304 305 306 307 306 306 307 307 311 311 310 308 310 311 312 311 311
296 295 294 294 295 295 296 295 295 297 300 297 303 303 300 302 303 303 302 303 303 303 305 305 306 305 307 309 307 308 305 305 305 309 312 310 312 311 311 311 311 311 311 315 321
295 295 294 294 294 295 295 294 297 298 294 297 302 300 299 300 301 303 302 301 302 302 304 306 307 304 305 306 308 308 310 307 309 311 310 311 312 310 309 309 311 312 318 321 321
294 294 294 294 294 294 293 295 297 292 292 296 299 297 298 300 301 301 302 302 303 302 302 304 305 307 306 306 309 311 311 311 310 311 311 311 310 309 309 311 311 319 322 322 321
294 293 293 293 293 295 294 294 293 292 295 298 297 297 299 299 299 299 300 301 300 303 308 306 303 306 307 309 308 310 310 309 311 312 308 309 310 310 310 314 320 321 320 321 318
293 293 293 296 295 295 296 293 293 295 297 298 297 297 300 298 298 297 298 301 301 300 301 310 311 307 308 309 309 310 310 309 306 308 307 309 310 312 317 318 317 317 318 317 317
293 293 296 296 296 297 294 292 293 297 298 298 297 298 299 298 298 297 297 299 300 300 301 304 310 307 307 308 309 308 309 309 308 309 312 311 310 313 315 315 313 314 317 318 317
293 292 296 296 297 294 294 296 296 297 298 299 298 299 299 298 298 298 298 300 301 301 301 302 303 305 305 308 308 310 310 311 311 313 312 310 311 314 311 310 309 310 314 318 318
292 292 294 296 297 293 295 295 297 297 298 298 300 299 299 299 299 298 298 299 300 300 301 302 302 304 304 306 306 309 312 313 313 314 311 311 311 312 310 309 306 306 309 316 319
290 290 294 294 295 293 296 297 297 298 297 296 299 299 300 299 299 299 299 300 300 300 300 302 303 304 303 306 307 311 313 313 314 315 315 314 313 312 308 306 305 305 305 312 318
290 291 293 293 293 292 293 296 296 296 296 298 299 299 299 299 299 299 301 301 300 301 301 304 303 303 306 308 305 304 301 310 311 310 314 314 309 310 306 303 303 303 304 306 318
288 289 290 292 291 295 295 295 296 295 294 295 297 298 299 299 299 300 301 300 301 300 304 304 303 303 304 303 303 302 302 302 308 306 306 307 306 304 303 302 302 302 302 305 317
289 289 292 291 293 294 294 294 294 295 295 298 299 299 300 302 301 301 301 301 301 301 304 303 301 301 301 302 302 302 302 302 302 302 302 302 301 301 301 301 302 302 303 304 315
289 291 292 293 294 294 293 294 294 295 297 298 299 300 300 301 302 302 303 302 301 301 303 302 300 302 303 301 301 302 303 303 302 303 302 302 302 303 302 302 302 303 305 313 317
291 292 291 291 293 293 293 294 294 296 297 298 300 300 301 302 300 300 301 302 302 302 302 302 302 300 299 300 301 301 301 301 301 302 302 301 301 301 302 302 303 306 313 318 317

GFSSW_925_thetae_120.txt.gz
Theta_e
306 306 306 306 306 306 306 305 301 298 298 299 299 299 297 297 297 305 307 305 305 305 304 314 314 315 315 317 317 317 318 320 320 318 319 317 317 318 318 319 318 318 320 320 321
306 305 305 305 305 305 305 305 299 298 300 301 300 300 300 299 305 306 306 310 311 306 311 313 314 316 317 318 318 317 319 320 320 318 318 317 318 318 318 318 318 319 320 320 320
305 304 304 304 303 303 301 298 298 298 300 301 301 301 300 301 308 305 308 308 305 307 311 312 313 315 315 317 317 317 319 320 317 317 317 317 317 317 317 317 318 319 320 321 321
304 302 301 300 301 301 300 297 297 298 300 301 302 305 302 307 305 311 311 303 308 312 313 312 313 314 314 316 316 317 317 317 317 317 317 317 318 318 318 319 319 320 320 320 320
301 300 298 297 297 297 297 297 296 298 300 301 304 306 307 305 303 301 300 303 311 314 313 314 315 315 315 315 316 317 317 317 317 317 318 318 318 318 319 319 319 319 320 320 321
300 299 297 297 296 295 296 296 297 299 300 302 305 305 308 304 301 302 301 304 309 311 311 313 313 315 315 315 315 316 316 317 317 317 317 317 318 319 319 320 319 320 320 321 321
300 298 298 296 295 295 296 297 299 300 301 304 305 307 308 306 302 303 303 302 302 306 311 309 312 313 313 314 314 314 315 315 316 317 318 318 319 320 320 320 320 319 319 319 318
300 298 297 295 295 296 297 299 300 300 303 305 305 307 308 305 304 308 309 309 310 307 305 308 309 311 312 312 311 312 314 315 316 316 316 317 318 319 319 319 319 316 314 315 316
299 299 296 295 296 297 298 299 301 302 303 306 309 309 308 305 308 306 308 308 307 310 306 307 309 309 309 309 309 310 312 314 315 315 317 317 318 318 318 316 315 314 314 314 315
299 297 295 294 296 297 298 299 300 302 302 306 308 308 307 303 302 302 302 304 307 308 310 307 308 310 309 309 309 310 310 311 313 315 315 317 317 317 315 315 315 313 312 314 315
298 296 295 294 296 298 299 302 302 304 301 301 301 301 303 303 304 304 304 304 306 307 310 308 307 308 308 309 309 309 309 310 311 312 313 314 315 315 314 313 312 311 314 315 316
297 295 294 294 296 298 299 301 299 299 303 301 302 302 303 303 305 305 304 304 304 306 307 310 308 306 307 308 308 308 308 308 309 311 311 312 312 312 311 312 313 314 314 315 315
296 295 293 293 295 299 298 297 297 299 303 302 303 304 302 304 305 303 305 305 306 306 306 308 309 310 310 310 309 309 309 308 308 308 308 309 310 311 312 313 313 314 315 314 317
295 294 293 293 297 297 299 296 297 299 304 299 305 302 300 302 304 303 305 305 308 306 306 307 308 308 308 310 310 311 310 308 307 308 309 310 312 313 313 313 314 314 315 319 322
294 294 293 293 297 297 297 296 298 302 299 300 302 300 300 300 301 302 304 305 307 307 307 308 307 307 308 308 308 309 309 309 309 310 309 311 312 312 312 313 312 314 320 322 323
294 293 293 296 297 296 297 297 301 302 297 299 300 298 298 300 300 301 302 305 305 305 308 309 309 306 307 306 307 308 309 311 312 311 314 312 313 312 312 313 313 319 321 322 320
293 293 294 296 298 296 297 301 299 297 298 299 299 298 297 300 299 299 299 302 304 304 308 309 310 308 308 307 310 308 310 312 313 313 313 310 310 311 312 315 319 321 320 319 319
292 293 296 296 296 298 300 299 297 297 299 299 298 297 298 299 298 299 299 298 303 303 304 306 312 310 306 307 309 310 311 310 311 312 312 311 310 313 319 318 317 317 317 318 319
293 296 298 297 297 298 300 296 298 298 298 299 297 297 298 298 299 299 299 299 302 303 304 305 306 310 309 310 307 309 313 312 311 310 310 311 316 319 317 314 313 314 315 318 318
295 298 297 296 297 299 299 298 298 298 298 298 298 298 299 299 299 300 299 299 300 302 302 304 305 306 308 311 312 310 310 310 310 311 309 309 313 314 315 310 307 306 306 310 314
295 299 296 295 299 299 299 298 297 298 297 297 298 298 298 299 299 300 300 300 301 302 302 302 305 305 307 309 312 315 314 313 312 311 311 312 311 315 314 311 308 306 305 306 310
295 300 295 296 300 299 298 297 296 296 297 297 298 300 300 299 299 299 299 300 301 302 302 302 303 306 306 307 308 309 314 316 319 315 314 313 313 314 314 311 307 307 305 306 307
297 296 296 297 300 298 297 297 297 297 297 297 297 298 298 298 299 299 300 300 301 301 303 304 303 303 304 308 308 307 306 308 310 314 315 315 313 315 314 310 307 306 305 306 306
297 299 297 298 297 298 296 296 295 295 295 296 297 299 300 300 300 300 301 301 302 302 303 303 302 302 303 306 305 304 305 304 305 309 311 312 310 309 307 306 305 305 305 306 306
297 297 296 298 297 296 295 295 296 297 297 297 299 300 300 302 301 301 301 302 303 302 302 302 301 300 300 301 302 303 304 303 303 303 305 307 305 305 305 305 304 304 305 306 307
297 297 295 295 295 295 295 296 296 296 297 299 299 301 301 301 303 305 303 303 303 302 302 302 302 301 301 301 301 302 302 302 303 304 304 304 304 305 304 303 304 305 305 307 311
294 294 296 294 295 296 296 295 296 298 298 299 300 301 300 300 300 301 302 302 303 304 304 304 302 302 301 300 300 300 301 301 302 302 303 304 304 304 303 304 305 305 306 311 315

GFSSW_925_thetae_123.txt.gz
Theta_e
306 307 306 306 306 306 305 303 298 297 298 300 300 300 299 299 298 308 310 308 309 309 305 309 315 314 316 318 319 321 322 323 323 323 322 322 319 320 321 320 321 321 322 325 322
305 305 305 305 303 303 303 300 298 297 299 300 300 300 300 300 308 309 309 308 309 309 309 310 315 315 318 319 320 321 323 323 323 323 323 322 320 321 320 320 320 321 321 321 321
304 302 300 298 302 301 299 296 296 296 298 299 300 301 301 301 311 312 310 307 307 309 312 313 314 316 317 319 320 321 322 323 323 322 321 321 320 320 321 321 320 320 320 322 323
301 300 299 298 299 300 298 295 295 296 297 299 300 303 303 309 311 314 310 306 304 312 315 315 315 316 317 318 318 321 321 321 321 321 320 320 320 320 320 320 321 321 321 321 322
299 299 298 297 298 299 297 296 296 296 298 299 301 304 310 310 309 306 302 304 309 311 314 316 316 316 317 317 318 319 319 320 320 319 320 320 320 321 321 321 321 321 321 321 322
300 299 297 297 295 295 296 297 297 298 299 300 304 304 311 310 305 305 304 304 306 311 311 314 316 317 317 318 318 318 318 319 319 319 319 319 319 320 320 321 321 321 322 322 322
300 298 298 296 295 296 297 298 299 298 300 302 304 308 310 309 309 307 306 306 305 305 309 310 312 315 315 316 317 317 317 318 318 319 319 319 320 320 320 320 321 321 322 322 322
299 298 297 294 295 296 297 297 298 301 303 304 305 309 310 308 306 309 311 311 310 310 309 305 308 312 313 315 316 315 316 318 318 318 317 318 320 320 321 321 322 322 322 321 321
298 298 296 294 295 295 296 298 300 302 302 306 312 312 311 307 307 306 305 305 306 308 312 308 307 310 312 312 313 314 315 316 317 318 318 318 319 319 320 321 321 321 320 319 318
298 298 295 294 295 295 298 300 301 306 306 307 308 309 309 306 306 306 307 305 307 308 312 309 308 310 311 311 312 312 313 314 314 314 316 317 318 319 320 320 320 318 318 317 316
298 296 293 293 295 297 302 304 306 309 305 304 304 305 305 305 307 307 307 307 308 309 310 312 309 309 310 312 311 311 311 311 313 313 313 315 316 317 318 319 318 318 317 316 316
296 294 293 293 295 300 302 303 302 302 306 304 305 306 304 305 308 307 307 309 309 308 310 310 312 311 310 310 311 311 311 311 311 311 311 312 314 314 315 317 317 316 315 315 316
294 294 293 293 297 302 300 300 300 302 308 304 306 304 303 303 305 305 306 307 310 310 310 310 310 311 311 311 309 309 310 311 311 310 310 311 312 312 312 313 314 315 315 316 317
293 293 293 294 298 300 302 299 300 303 312 304 308 305 302 303 305 303 304 306 307 310 311 310 310 310 310 310 311 312 311 310 310 311 311 312 311 312 312 313 314 315 315 316 318
294 293 293 295 300 301 299 299 302 306 307 303 304 302 302 302 302 303 302 304 305 306 309 309 311 310 311 311 310 311 311 311 311 311 311 310 311 312 314 314 314 315 316 319 322
293 293 295 300 301 300 299 301 304 311 302 302 302 301 301 301 302 302 302 303 303 304 306 307 309 311 312 310 310 311 312 311 311 311 312 312 312 313 314 315 314 315 319 321 321
293 292 297 299 302 300 301 305 307 302 301 302 301 301 299 301 301 300 301 301 301 304 305 305 307 310 311 311 311 309 310 313 312 314 319 313 312 312 314 314 314 317 321 320 320
292 296 297 299 300 301 302 305 302 300 302 301 300 300 300 301 301 301 302 301 301 302 304 305 305 310 312 311 312 311 311 312 315 317 316 313 314 314 313 319 320 320 320 320 320
294 299 300 299 300 301 305 302 303 301 300 300 300 300 301 301 301 301 302 301 301 302 304 304 304 306 310 312 313 312 315 311 313 313 314 314 315 318 318 319 318 318 318 319 319
299 300 299 299 300 303 304 300 301 299 299 300 300 300 300 301 301 301 301 300 300 301 302 303 304 305 305 311 310 315 313 316 315 320 317 313 313 317 318 316 316 313 311 311 312
298 302 298 298 302 304 303 301 299 299 298 298 299 299 299 300 301 301 301 301 301 301 302 303 302 302 304 307 312 312 315 312 314 316 315 314 312 313 318 313 311 309 308 308 308
299 305 298 300 304 302 302 299 296 298 299 299 299 300 301 301 301 300 300 301 301 301 302 302 305 303 303 306 309 310 313 315 322 315 314 315 315 316 316 312 312 310 308 308 308
302 299 298 301 306 303 299 299 298 299 298 298 298 298 299 300 300 300 300 300 301 302 302 304 304 305 303 303 310 311 309 310 312 314 316 319 318 316 315 313 311 308 307 307 308
301 303 300 301 300 301 299 298 297 297 297 297 298 299 301 302 301 302 301 301 302 303 305 303 303 304 304 303 307 305 309 307 306 311 313 318 318 317 316 312 307 307 307 307 307
302 301 300 304 301 299 298 297 298 298 298 299 300 301 302 302 301 302 302 303 302 304 304 304 303 304 303 302 301 302 303 305 307 307 308 309 310 313 310 307 307 306 306 306 307
301 301 299 300 299 299 296 298 298 298 299 300 301 301 302 302 302 303 302 302 303 304 304 303 306 304 302 302 302 301 301 303 304 304 305 306 307 307 307 306 305 305 306 307 307
297 298 301 297 299 300 300 298 298 299 300 300 301 302 301 301 300 301 302 303 303 304 304 304 305 303 303 302 302 301 301 302 302 303 304 304 305 306 304 304 305 307 308 308 308

GFSSW_925_thetae_129.txt.gz
Theta_e
304 304 306 305 302 298 296 296 296 296 296 296 297 297 298 299 301 303 309 310 312 312 308 309 309 307 313 312 315 315 317 318 317 318 319 319 321 321 319 319 319 319 321 325 328
303 303 302 302 300 297 296 296 296 296 296 296 296 297 297 300 305 310 310 310 310 309 309 309 307 307 308 312 312 314 317 318 317 318 319 320 321 318 318 319 318 321 321 324 328
302 301 301 300 299 299 297 295 295 295 296 296 296 297 298 301 312 312 309 308 306 304 306 312 313 313 308 311 312 313 315 315 317 318 318 319 319 318 317 316 318 319 319 318 319
300 300 300 300 297 296 295 295 295 296 296 296 297 297 299 307 311 311 306 304 305 308 307 309 312 313 312 311 312 313 314 315 316 317 318 319 317 318 317 316 317 317 317 317 318
300 299 300 298 297 295 295 295 296 296 296 296 297 299 302 311 313 309 306 306 305 307 311 310 310 312 314 313 313 314 314 315 316 316 316 317 318 318 317 317 317 317 319 318 318
300 300 300 298 296 294 295 295 296 296 297 298 299 302 310 309 309 308 309 308 307 308 307 306 310 310 311 313 313 315 315 315 315 315 315 316 317 316 317 316 318 318 318 318 318
300 300 299 298 295 294 295 295 296 298 299 301 302 307 310 309 308 308 308 308 308 308 309 310 308 305 305 307 311 311 311 312 314 315 316 315 316 316 316 316 317 317 317 317 317
301 300 298 297 294 294 295 295 297 299 299 301 304 309 311 311 308 309 307 307 307 307 308 307 309 309 308 305 307 309 310 311 313 314 315 315 316 316 315 316 317 317 317 317 317
300 298 297 295 293 294 296 298 298 301 301 302 310 311 314 309 308 307 307 307 307 308 307 307 308 310 309 304 303 308 309 310 311 313 314 315 316 316 315 316 317 317 317 317 317
299 298 297 294 293 294 300 303 302 303 307 309 311 312 311 306 307 308 308 308 308 307 306 306 308 308 304 302 303 307 309 310 311 311 313 314 314 312 313 313 312 311 314 315 317
298 297 294 293 293 298 302 305 305 306 306 308 306 307 306 306 306 308 305 305 308 308 306 306 305 309 306 304 305 306 307 308 309 310 309 310 311 311 311 312 311 311 312 311 316
296 295 293 293 294 302 302 302 302 302 303 306 305 306 306 305 304 305 304 302 302 304 305 307 306 308 309 310 311 309 308 308 309 309 310 310 311 308 310 312 311 311 310 310 310
295 293 293 293 294 303 300 301 301 303 304 309 305 307 304 303 303 303 303 302 301 301 301 303 306 308 310 310 310 309 310 310 310 309 308 307 308 309 310 311 312 312 311 311 311
294 293 293 294 302 302 303 301 302 304 310 307 305 306 304 302 302 303 303 302 301 301 301 302 304 303 304 305 307 307 309 310 310 308 309 310 310 309 309 310 311 311 311 311 311
293 293 292 295 300 303 302 301 302 306 318 306 305 303 303 302 301 303 303 302 301 301 301 300 300 300 301 303 304 305 306 308 310 309 309 310 311 311 309 310 310 311 311 311 312
293 292 295 301 302 302 300 302 305 311 314 302 303 303 302 302 302 303 303 302 302 302 301 300 301 300 302 305 305 306 305 307 308 308 311 311 310 311 310 311 311 311 311 312 316
292 292 298 300 303 302 301 304 310 314 304 303 303 302 301 301 302 302 302 301 301 301 301 301 300 300 306 306 306 307 312 313 312 310 312 311 313 312 310 310 311 312 318 315 317
292 293 299 301 302 301 303 305 310 304 304 302 301 301 301 302 301 302 301 301 302 300 299 300 300 301 302 302 303 305 314 318 319 315 312 312 314 312 310 310 312 312 319 318 317
293 299 303 302 299 302 303 307 303 303 301 300 300 301 302 302 301 301 301 301 301 300 300 300 300 301 302 302 301 304 308 313 317 316 318 312 311 310 311 312 313 312 319 318 317
299 303 303 300 299 304 306 304 302 301 300 300 300 302 300 300 301 301 301 302 300 301 301 302 302 301 301 302 303 306 310 312 315 319 318 314 310 312 313 320 318 318 319 319 317
299 302 300 299 303 305 307 300 301 300 299 299 300 300 301 301 300 299 300 300 303 303 301 300 301 301 301 301 303 304 308 311 313 314 315 318 312 317 316 317 318 315 317 314 311
302 303 299 303 305 306 301 301 298 299 300 300 301 301 299 299 299 301 302 303 303 303 303 302 303 302 303 303 304 305 309 314 314 313 311 312 315 311 311 314 313 312 312 310 306
303 298 300 303 304 301 300 300 300 300 299 299 299 299 299 301 301 302 302 303 302 303 304 304 303 304 301 304 304 305 305 306 311 311 310 313 315 309 310 309 313 313 311 306 306
303 301 300 302 300 303 302 301 300 299 298 298 298 300 301 301 301 301 302 302 302 301 304 304 304 304 304 302 303 306 306 303 308 309 309 309 309 311 310 309 309 311 311 310 304
301 304 303 302 300 301 302 300 300 300 299 299 301 301 301 301 301 301 301 301 301 302 303 304 304 305 304 304 304 304 303 302 302 303 308 307 308 308 309 309 309 309 310 310 308
299 301 301 300 301 300 299 300 300 299 300 301 300 301 301 302 300 299 300 300 302 302 302 304 302 305 304 305 305 303 302 302 302 303 301 305 306 306 308 309 309 309 312 313 313
299 300 301 299 300 300 299 300 301 301 300 300 299 300 301 300 299 299 300 300 301 303 305 305 304 304 304 303 303 303 304 305 305 302 304 305 309 308 309 309 310 309 308 308 308

GFSSW_925_thetae_135.txt.gz
Theta_e
304 303 303 303 300 297 297 296 296 296 296 296 296 297 297 297 299 301 305 307 310 310 310 308 307 308 307 310 312 311 315 317 318 319 318 316 316 317 316 316 315 314 318 320 328
304 303 302 301 299 297 296 296 296 296 296 296 297 297 297 297 300 306 311 309 308 309 308 308 308 306 303 307 309 311 312 315 314 316 315 316 316 315 316 316 317 316 316 322 329
304 302 301 300 299 297 296 296 295 295 296 296 297 297 297 298 304 308 308 308 305 304 305 308 311 311 308 305 307 309 314 314 314 313 312 313 314 313 315 314 315 315 315 316 320
303 302 301 299 298 297 296 295 295 295 295 296 298 298 297 303 305 309 306 305 304 306 307 307 308 311 311 310 308 308 308 309 310 311 311 311 311 313 311 313 314 315 314 316 317
303 302 300 299 298 296 296 295 295 295 295 298 299 300 301 305 305 308 307 307 306 307 308 308 307 308 309 309 308 309 310 309 309 309 309 310 310 312 313 311 312 313 313 314 315
304 302 299 299 298 296 295 295 295 295 296 299 300 301 309 300 301 307 307 307 307 307 306 306 306 306 304 306 305 307 305 305 307 310 308 310 311 311 311 312 313 313 314 314 314
304 302 300 300 299 296 295 294 295 295 298 300 301 304 309 303 304 309 308 306 307 306 305 307 307 308 307 308 306 305 304 304 306 309 310 310 312 311 311 311 311 312 313 313 312
303 301 300 301 298 296 294 294 295 298 300 300 303 308 308 304 311 310 307 306 306 306 306 307 306 305 307 307 307 305 304 306 309 307 308 311 311 313 310 310 310 310 311 312 313
303 301 300 299 296 294 293 294 300 303 300 303 309 309 312 310 308 306 307 307 307 307 307 306 305 304 308 306 303 301 303 304 305 307 307 309 309 310 308 308 309 310 308 308 308
303 300 301 299 295 293 294 300 304 302 302 306 309 307 308 305 305 305 306 305 306 306 305 305 304 306 304 303 306 305 303 304 306 306 305 303 305 306 305 306 307 306 306 306 306
302 301 301 298 294 293 299 302 301 304 307 308 309 310 307 305 304 305 303 303 302 302 301 303 304 305 305 305 306 303 302 303 304 303 305 304 305 306 306 305 305 305 305 305 306
301 301 299 296 293 295 300 299 301 301 299 301 303 304 305 305 302 301 302 301 300 299 299 297 298 303 300 300 302 306 305 304 304 303 303 303 304 305 306 304 305 306 305 305 305
301 301 297 294 293 299 300 301 302 302 298 303 304 304 304 302 301 300 301 300 299 299 299 299 299 300 300 299 299 299 303 303 304 302 303 303 305 305 306 305 306 306 305 305 305
301 299 295 293 297 300 301 300 301 303 301 306 305 304 304 301 300 301 301 300 300 300 300 299 299 300 299 299 299 300 303 305 303 303 303 305 303 304 305 305 306 306 305 304 304
301 297 294 293 300 301 301 300 301 305 297 306 304 303 301 300 300 301 301 301 300 301 300 300 299 299 298 299 300 303 302 306 307 306 304 304 304 305 305 306 306 305 306 306 305
299 295 293 294 299 301 300 299 304 301 300 306 301 301 300 300 300 301 301 300 300 301 299 300 299 299 300 300 300 300 300 304 306 305 305 304 304 304 304 307 309 312 313 314 309
297 293 294 300 302 302 302 304 302 304 304 301 301 300 299 299 300 300 300 299 298 299 298 298 299 299 299 299 299 299 301 303 306 308 306 307 306 308 311 313 312 314 313 311 312
295 293 295 300 302 302 303 303 307 304 302 300 300 299 300 300 300 300 299 298 299 299 298 299 300 299 299 300 300 299 303 301 304 304 304 304 305 306 308 308 311 313 311 310 310
293 293 298 302 301 301 301 303 300 301 300 299 300 300 300 301 299 299 299 298 301 301 300 300 300 298 300 300 299 300 300 301 303 304 306 305 305 308 308 308 310 312 310 309 310
294 297 301 301 300 303 303 306 299 299 299 299 300 300 300 299 298 298 300 302 302 302 301 299 300 300 300 299 299 300 300 301 302 302 304 302 307 310 311 310 310 309 307 309 310
300 301 301 301 301 302 303 298 299 299 299 299 299 300 299 298 298 298 300 302 302 301 300 301 300 299 300 299 301 303 304 304 303 305 307 308 307 310 309 310 310 310 307 309 309
299 301 300 301 303 303 298 299 300 299 300 300 299 299 298 300 299 301 300 301 301 301 301 301 302 303 300 299 301 302 303 304 301 301 308 309 308 309 309 307 308 309 310 310 309
298 298 299 302 303 298 299 299 299 298 298 298 299 299 299 299 299 301 301 300 299 299 300 302 301 300 301 299 302 301 303 304 307 307 307 307 306 307 307 307 308 309 309 310 310
296 297 297 298 300 299 299 299 299 298 298 297 300 300 299 299 300 300 300 300 299 299 301 303 302 302 302 301 300 303 303 304 304 305 305 306 303 307 309 308 310 308 309 307 306
299 298 299 301 298 298 299 300 299 299 299 300 300 300 300 300 300 300 299 298 298 300 302 301 301 302 302 302 302 303 303 304 305 304 306 306 307 307 308 310 310 308 307 305 304
299 299 298 298 299 299 300 300 300 299 300 300 300 301 300 300 298 298 298 298 299 300 300 301 300 301 303 303 303 303 301 303 305 306 306 305 306 304 305 307 306 305 304 303 302
299 298 299 298 297 299 299 300 300 299 300 299 297 297 299 300 297 296 296 297 298 299 300 302 303 304 304 302 303 305 301 303 304 303 305 305 304 302 302 305 303 302 300 299 298

GFSSW_925_thetae_138.txt.gz
Theta_e
305 305 303 303 301 299 297 297 296 296 296 296 296 297 297 297 299 301 303 307 309 309 309 307 307 307 307 309 312 309 316 315 315 316 315 315 316 316 315 314 314 315 315 318 327
304 304 303 302 301 300 297 296 296 295 296 296 296 297 297 297 300 305 310 308 308 309 307 306 306 304 302 306 308 311 312 314 313 315 316 315 315 313 314 314 314 314 314 319 329
305 305 303 302 300 299 297 296 295 295 295 296 297 297 298 298 302 305 308 307 304 304 306 307 311 311 309 304 307 309 312 311 313 313 312 312 311 311 312 312 313 312 313 313 322
306 305 303 302 300 300 298 296 295 295 295 296 298 298 298 302 304 308 306 305 305 306 307 306 307 310 310 310 307 307 307 309 308 309 308 308 309 311 309 310 311 311 311 311 313
306 305 303 302 300 299 298 296 295 294 295 297 299 299 300 299 301 307 307 307 307 307 307 306 306 307 308 307 306 307 308 307 307 305 307 308 308 309 309 309 309 309 310 311 311
306 305 304 302 300 300 297 295 294 294 295 299 299 301 306 297 300 306 308 307 307 306 305 305 306 306 305 304 304 305 304 303 304 306 307 308 308 307 309 310 311 311 312 311 311
307 306 304 302 299 300 297 295 294 294 296 300 300 303 306 297 303 305 309 307 306 306 305 305 306 307 306 307 306 305 304 303 304 305 306 308 308 309 308 308 309 310 310 310 310
308 306 304 301 300 299 296 294 294 296 300 301 303 307 306 302 310 308 307 306 306 306 305 306 305 305 306 306 306 306 303 304 305 305 305 308 308 309 309 306 305 306 307 308 309
308 306 304 301 299 298 295 294 297 302 302 302 308 309 306 310 308 305 306 306 306 306 306 306 304 303 305 304 303 301 303 303 304 304 305 307 307 307 305 305 304 304 304 305 306
309 306 303 301 300 296 294 297 303 302 303 305 308 305 306 305 305 304 305 303 304 305 303 303 302 303 302 302 304 304 304 303 304 304 304 302 304 304 304 303 303 302 303 303 303
308 306 303 301 299 295 295 301 300 303 306 305 306 306 307 305 304 304 302 302 300 298 298 299 303 303 303 303 304 304 303 302 302 303 302 301 302 303 302 302 302 302 303 303 304
308 305 302 301 297 293 298 300 300 300 299 301 305 305 305 305 302 301 302 300 299 297 298 296 297 300 299 299 298 299 302 301 301 302 302 300 303 303 302 303 303 303 302 303 303
307 303 301 300 294 295 300 300 301 301 298 299 301 303 303 304 300 300 300 299 298 298 298 298 298 299 299 298 298 298 299 300 302 301 300 300 302 302 304 304 304 303 303 303 303
306 302 301 296 294 300 300 300 301 301 298 300 306 303 303 300 300 300 300 299 299 299 299 298 299 299 298 299 299 300 299 301 304 303 303 302 303 303 302 302 305 307 310 311 311
304 301 300 293 300 301 301 300 302 303 297 304 303 302 300 299 299 301 300 300 300 300 299 299 298 298 298 299 299 300 299 299 302 303 303 300 301 302 302 310 311 310 312 311 309
303 301 299 293 297 301 301 301 303 298 299 305 301 300 299 299 299 300 299 298 299 299 298 299 298 298 299 299 299 299 298 299 303 302 304 303 303 303 309 311 311 310 312 309 308
302 300 296 295 301 301 300 303 298 299 303 301 301 300 299 299 300 299 299 299 298 299 298 298 298 298 299 298 298 298 298 299 300 306 302 300 300 304 308 308 310 310 310 308 308
300 296 293 299 302 301 304 303 298 300 302 299 299 299 299 299 299 299 298 297 300 298 297 299 299 298 298 299 299 297 300 299 300 301 300 299 299 299 307 306 308 308 307 306 307
296 294 294 300 302 302 299 300 298 303 299 298 299 299 299 299 299 298 299 299 301 300 298 299 299 298 299 299 298 298 298 299 301 300 302 299 300 301 304 304 307 308 308 307 309
293 294 299 301 301 302 300 302 299 298 298 299 299 299 299 298 298 297 300 301 302 301 300 299 299 299 299 298 298 301 300 301 300 294 300 297 300 306 305 306 309 309 309 309 308
295 300 299 301 301 300 299 302 298 299 299 299 299 298 298 297 297 298 300 301 301 300 299 300 299 299 299 298 298 302 302 303 302 302 305 305 302 307 308 309 308 309 310 311 308
300 301 300 300 301 300 301 297 299 299 299 299 298 298 297 298 299 300 300 301 300 300 299 300 301 302 299 298 298 301 302 301 300 303 304 307 304 308 308 308 308 310 308 306 304
298 299 298 301 298 296 297 298 299 298 298 298 298 298 299 299 299 300 300 299 298 298 299 300 300 298 299 297 301 301 302 302 304 305 303 304 305 305 306 308 308 307 306 303 302
298 299 298 300 299 297 300 299 298 298 297 299 299 299 298 299 299 300 299 299 298 298 300 302 301 301 299 299 298 301 302 302 304 305 303 303 303 306 305 307 306 307 305 304 302
297 299 298 300 298 299 299 300 298 299 299 299 300 299 298 300 300 300 298 298 298 302 301 300 301 301 301 300 300 301 302 301 304 304 305 306 307 304 304 305 306 303 302 301 298
298 297 299 300 300 299 300 298 299 299 299 300 300 300 299 300 298 299 298 297 298 299 299 300 297 299 301 301 302 303 300 300 304 303 303 305 307 301 301 302 302 300 299 297 295
297 298 300 298 297 297 299 300 299 299 299 298 299 298 299 299 296 296 296 296 298 299 299 301 302 303 302 302 302 303 301 300 302 301 302 303 302 301 300 302 300 298 296 295 293

GFSSW_925_thetae_141.txt.gz
Theta_e
306 305 305 304 302 301 298 297 296 296 296 296 296 297 297 298 299 302 303 307 309 308 308 307 307 307 307 312 314 313 317 317 316 317 317 317 318 317 316 317 316 317 317 317 320
307 305 305 304 302 301 299 297 296 295 295 296 296 297 298 298 300 305 309 307 308 307 305 306 307 305 306 307 312 317 318 316 316 316 317 318 316 316 316 317 316 316 316 315 317
307 306 305 304 302 301 299 297 296 295 295 295 296 298 299 299 302 306 307 305 304 306 307 308 310 311 310 306 309 312 314 314 316 316 315 315 314 313 313 313 314 315 315 315 315
308 307 306 304 302 301 299 297 296 295 295 295 297 298 299 304 305 307 306 305 305 306 306 306 308 311 312 311 308 309 309 312 310 310 308 310 311 312 313 313 313 314 314 313 315
309 307 306 304 303 300 300 297 295 295 295 295 298 300 301 298 300 307 307 307 307 307 306 306 306 308 309 308 306 308 309 308 308 306 306 308 309 311 311 312 312 312 312 314 315
311 308 307 305 303 300 300 297 295 294 294 296 299 300 305 298 300 305 307 306 306 306 305 306 307 306 307 305 306 306 306 307 307 308 308 308 310 308 311 312 311 312 313 313 314
312 310 307 305 304 300 299 296 295 295 295 298 300 303 306 300 303 305 308 307 306 306 305 305 306 308 307 308 307 307 308 306 307 307 308 308 309 311 311 308 309 308 309 310 311
313 311 308 306 304 300 299 296 294 296 298 302 302 307 309 302 309 308 308 306 305 305 305 305 305 306 306 307 307 307 305 307 307 306 307 308 309 309 307 308 308 308 309 308 309
314 312 308 306 303 300 298 294 296 302 301 301 308 309 310 308 307 305 305 306 305 305 305 305 304 305 306 307 307 305 307 305 306 306 306 308 308 308 308 307 307 307 308 308 308
314 313 309 306 303 300 296 295 302 303 303 305 308 305 304 305 304 304 304 303 304 304 303 305 305 305 305 307 307 307 304 304 304 306 305 305 306 305 305 305 306 307 307 308 309
314 313 309 304 301 299 294 300 300 302 306 302 305 302 307 306 303 303 302 301 300 301 301 300 306 306 301 302 304 303 303 303 303 303 305 305 305 305 305 304 305 306 307 307 308
314 311 308 303 300 296 294 300 300 300 300 300 306 307 306 306 303 300 301 301 301 300 299 300 300 300 299 299 299 299 301 302 303 304 304 305 304 305 305 305 306 308 311 313 314
313 310 307 302 299 293 298 300 301 300 298 298 302 304 305 303 301 300 300 299 299 299 299 300 300 300 299 300 301 300 300 301 301 303 303 304 303 303 304 309 310 310 311 313 313
311 309 305 301 297 298 300 300 301 301 297 299 304 303 302 301 300 299 299 300 300 300 299 299 299 299 300 300 300 301 300 299 300 301 301 303 301 302 307 310 310 310 311 312 312
310 308 304 300 299 301 301 300 302 302 305 304 303 303 299 300 300 300 299 301 300 300 300 300 299 299 300 300 300 301 300 299 300 301 302 302 302 303 309 310 309 309 310 311 310
310 306 303 294 298 301 301 301 303 300 299 305 301 300 300 299 299 300 300 300 299 300 299 298 298 299 299 299 299 299 299 299 303 304 302 302 301 303 309 309 309 309 310 310 309
308 304 301 295 298 300 301 302 302 300 302 301 301 300 300 300 300 300 300 300 300 300 300 299 299 299 299 299 299 299 301 298 299 303 301 300 300 302 304 306 307 309 309 309 309
305 302 299 294 300 301 302 305 300 299 303 299 299 300 300 300 300 299 298 300 300 298 299 299 300 299 299 299 299 299 299 299 299 299 299 299 298 299 304 305 306 308 309 309 310
302 298 295 295 301 302 303 300 301 301 300 299 299 300 300 299 299 300 300 301 301 300 300 300 299 299 299 299 298 299 299 300 301 301 300 299 300 300 305 306 308 308 309 309 305
297 295 296 298 301 301 303 298 299 299 298 299 300 300 300 299 299 299 301 301 301 300 300 300 297 299 299 299 300 301 301 303 302 300 299 299 301 303 307 309 308 310 307 305 303
296 296 298 300 301 302 302 299 299 298 298 299 299 299 299 299 298 299 301 301 300 300 300 300 299 298 300 299 299 302 303 304 304 303 302 305 303 308 309 307 309 306 304 302 300
299 300 297 301 302 302 302 301 299 298 299 299 299 298 299 298 299 300 301 302 300 299 300 301 301 299 299 299 299 301 303 303 304 304 306 306 304 307 307 307 307 305 304 302 300
299 298 298 300 302 302 301 299 299 299 299 298 298 299 300 300 300 301 301 299 298 298 300 301 301 299 300 300 301 302 302 303 304 305 305 305 303 304 304 305 306 305 303 301 299
298 301 299 300 300 301 300 299 298 298 298 299 299 300 300 300 300 300 300 300 298 298 302 302 301 300 298 298 300 301 302 302 303 305 303 304 304 305 303 302 304 303 301 299 297
298 300 299 301 301 300 300 300 299 298 299 300 300 300 300 300 300 300 299 298 299 304 302 302 302 302 302 301 302 302 302 302 303 303 306 303 304 303 302 301 304 300 298 296 295
299 299 298 298 299 300 301 299 299 299 301 300 301 300 299 300 301 300 298 299 300 300 300 301 302 302 302 302 302 303 302 300 302 305 303 302 304 301 300 299 299 298 296 295 293
297 297 300 298 301 300 300 300 300 301 299 300 300 300 300 299 298 298 297 298 299 300 302 301 302 303 302 302 303 303 301 300 300 301 301 303 302 299 299 298 298 295 294 293 291

GFSSW_925_thetae_144.txt.gz
Theta_e
307 306 306 305 303 301 299 298 297 296 296 296 297 297 298 298 299 308 311 309 311 309 308 309 309 311 312 316 318 318 320 322 322 322 322 320 320 320 320 320 320 320 320 320 318
308 307 306 305 303 302 299 297 297 296 296 296 296 297 298 299 306 309 309 307 308 308 308 309 311 310 313 314 316 318 320 321 320 319 319 319 319 319 319 318 319 319 319 318 318
308 308 306 306 304 303 300 297 297 296 295 296 297 297 299 299 307 310 307 305 305 307 309 310 311 312 313 313 315 317 319 319 318 318 317 317 316 316 316 317 318 318 317 318 318
309 308 307 306 305 304 301 298 297 296 296 295 296 297 299 308 312 309 306 305 305 307 308 310 312 312 313 314 313 313 314 314 315 313 313 313 314 314 316 316 316 316 317 317 318
311 309 308 307 305 304 301 298 297 296 295 295 296 298 305 304 304 307 307 307 308 308 309 310 310 311 313 313 313 313 314 313 313 312 312 313 313 314 314 314 315 315 315 317 317
312 311 309 307 306 304 302 299 297 295 295 295 298 299 305 305 300 306 307 307 308 309 309 310 310 310 311 310 310 311 311 311 311 312 312 311 312 313 314 313 312 313 313 314 314
313 312 311 308 306 305 302 299 296 294 295 298 301 306 307 306 303 307 309 308 307 308 309 308 309 311 311 311 310 311 311 312 311 311 311 311 312 313 313 312 312 312 312 313 314
314 313 312 309 307 305 303 298 295 295 299 302 301 310 307 304 307 310 310 309 307 306 307 307 308 309 310 310 311 310 309 310 311 310 310 310 311 312 312 312 311 311 312 312 313
317 314 313 311 309 306 302 297 295 299 301 302 309 312 308 308 310 306 307 308 307 306 307 306 308 309 310 310 311 310 309 310 309 309 308 308 309 310 310 310 310 310 310 311 312
320 315 313 312 308 305 300 295 298 303 305 307 308 309 305 309 306 305 305 305 307 308 308 309 310 310 310 310 311 311 310 309 308 308 307 308 309 309 309 309 309 309 311 312 314
318 315 313 311 308 303 296 302 305 307 307 307 306 304 308 308 305 305 303 304 306 308 309 307 310 310 308 306 306 306 306 307 307 307 306 307 307 307 308 308 309 311 313 313 314
317 315 313 309 304 300 294 302 303 303 305 304 305 308 308 308 306 304 303 305 305 305 304 305 306 303 303 303 303 304 304 305 305 305 305 306 307 307 307 311 312 311 310 311 311
317 314 312 309 302 296 300 301 301 302 302 301 302 304 306 307 305 304 304 304 304 304 303 304 303 302 302 303 303 304 304 304 303 304 305 305 306 307 309 310 309 309 310 311 311
315 313 312 307 303 297 299 300 300 299 306 307 304 304 306 306 303 302 302 304 304 304 303 303 302 302 303 303 303 304 303 302 303 303 304 304 304 306 308 309 308 309 310 310 311
314 312 309 307 301 301 300 300 301 305 323 305 304 304 305 304 304 303 302 304 304 304 303 304 302 303 303 302 302 304 302 302 302 303 304 305 304 308 309 308 306 308 309 310 311
313 311 307 303 298 301 301 300 304 309 320 307 304 304 302 302 302 302 303 304 303 303 302 302 302 302 301 301 301 301 302 303 303 305 304 305 304 304 305 304 307 309 310 312 309
313 311 307 304 301 301 301 305 308 316 308 305 304 304 303 302 302 303 303 303 303 303 303 302 302 301 301 302 302 302 302 302 303 306 305 304 302 304 303 306 309 310 310 306 304
312 307 303 297 300 301 301 306 315 315 307 304 304 304 303 302 302 302 303 303 303 303 303 303 304 302 301 301 301 301 301 301 301 302 303 303 302 303 304 308 308 310 308 304 302
306 299 298 297 301 301 303 311 318 308 305 303 303 304 303 302 303 303 303 303 303 303 303 303 302 301 301 301 300 302 301 302 302 302 303 302 302 303 306 308 307 309 305 303 302
301 297 296 299 301 302 303 311 309 303 302 304 306 305 304 303 303 303 304 303 302 302 302 303 301 301 301 301 302 301 303 305 305 305 302 302 303 305 309 309 308 306 305 302 301
298 299 297 299 301 304 307 308 302 301 302 304 304 303 305 303 303 304 304 303 302 302 302 302 301 301 300 300 301 304 304 304 305 304 303 303 305 310 308 306 308 306 305 302 301
298 299 297 300 305 306 308 304 301 301 301 301 303 303 304 303 303 303 304 304 302 302 301 302 301 300 300 301 302 302 304 305 306 306 306 308 305 308 306 305 305 306 304 302 301
298 297 297 300 307 307 305 302 301 301 301 301 301 302 302 303 303 303 303 302 301 301 302 302 301 300 302 303 302 303 304 304 305 305 305 307 304 307 306 305 304 304 302 301 300
299 302 297 300 303 306 306 305 301 300 300 301 301 302 303 302 303 304 302 301 300 300 301 301 300 300 301 302 303 303 302 303 304 305 304 304 304 305 305 303 303 302 301 300 299
297 303 302 302 303 305 305 304 302 300 300 301 301 302 302 302 302 302 302 301 301 301 302 302 302 301 301 302 302 302 302 303 304 304 304 304 304 305 303 303 301 300 299 298 297
299 303 302 303 303 303 305 302 303 301 301 301 302 302 302 302 303 303 302 301 302 304 304 304 305 304 304 303 303 304 304 304 303 303 304 304 304 304 302 301 299 299 297 296 295
298 300 302 303 303 303 304 302 301 302 301 302 304 302 301 302 302 302 301 301 303 303 304 305 304 304 303 303 303 305 304 303 302 303 303 304 304 301 301 300 298 297 296 294 293

GFSSW_925_thetae_147.txt.gz
Theta_e
308 307 306 306 306 304 301 299 298 297 297 297 298 299 299 299 302 311 315 310 313 309 309 313 312 315 317 319 320 321 323 325 325 325 325 323 322 322 322 322 322 322 322 322 321
309 308 307 307 305 304 303 300 298 297 297 297 297 298 299 299 310 311 310 308 309 309 314 313 315 314 317 317 320 321 323 324 324 323 323 322 322 321 321 321 320 321 321 320 320
309 309 308 307 306 305 303 300 298 297 297 297 298 299 299 301 313 314 306 305 306 308 311 312 313 315 316 318 319 320 322 323 322 321 320 319 319 319 318 319 320 320 319 319 319
310 309 309 308 307 307 305 301 298 297 297 297 297 298 300 310 318 313 305 306 306 309 310 312 315 316 317 319 318 317 318 318 318 317 316 317 317 317 317 318 318 318 318 318 319
310 310 310 309 308 308 308 303 299 297 296 296 297 298 309 313 312 309 306 308 310 311 312 314 314 315 317 318 317 317 317 317 316 315 315 315 315 315 315 316 316 316 316 317 317
312 311 311 310 308 307 308 305 299 297 296 296 297 299 312 313 304 308 309 309 310 311 312 312 314 314 313 314 315 315 314 314 314 314 314 314 314 314 316 315 314 314 315 315 316
314 313 312 312 310 307 307 305 299 297 296 297 299 305 311 314 306 308 309 310 310 310 312 311 311 313 314 314 314 313 313 315 315 314 313 313 314 315 315 315 314 314 314 314 314
317 315 313 313 311 307 307 303 298 296 297 300 301 309 317 308 306 308 310 311 310 310 310 310 310 311 312 313 312 313 314 314 314 312 312 312 313 315 314 313 312 312 313 313 314
322 318 314 314 313 308 306 302 296 296 301 301 310 312 317 309 308 310 310 310 309 309 309 308 310 312 312 312 314 315 315 315 314 312 311 310 311 312 312 312 311 312 312 314 315
322 321 315 315 313 309 306 298 300 300 307 308 308 312 313 312 309 308 308 308 309 310 310 310 312 313 314 313 315 315 315 314 312 312 310 310 310 311 311 311 311 311 314 315 315
321 320 316 315 313 309 304 303 310 313 309 316 312 309 310 309 308 308 307 307 309 310 311 311 312 314 312 311 309 308 309 309 310 309 308 308 308 309 310 312 313 313 313 313 313
321 321 318 315 312 306 298 306 308 306 313 312 310 309 310 310 309 308 306 307 308 309 309 309 309 308 307 306 306 306 307 308 308 308 307 308 308 310 311 313 312 312 312 312 312
321 319 316 313 311 303 300 306 304 303 310 316 309 310 309 308 309 308 307 308 308 309 308 309 308 305 305 306 306 307 307 308 306 306 307 308 308 310 312 311 310 310 311 311 313
318 316 313 312 307 304 300 301 300 298 317 317 305 306 308 308 308 307 306 308 307 308 307 308 307 305 305 305 305 306 306 306 305 306 306 307 306 309 311 311 309 309 312 313 312
316 315 313 312 308 307 307 300 299 308 328 313 307 307 308 308 307 305 305 306 307 307 306 308 305 305 305 306 305 305 305 305 305 306 307 307 307 309 311 311 308 312 311 310 309
315 315 311 308 303 302 302 303 306 319 329 311 307 307 307 307 305 305 305 306 307 307 306 306 305 305 305 304 303 304 304 306 306 307 309 309 308 308 309 308 311 311 310 308 307
315 314 311 306 306 302 301 306 315 328 318 313 308 307 307 305 305 304 306 305 305 305 306 304 304 304 304 304 305 305 306 307 308 309 310 309 306 307 306 310 312 310 308 307 306
315 312 306 308 306 302 304 310 323 320 320 312 310 308 308 306 305 305 306 306 305 306 307 306 306 305 305 305 305 304 304 305 305 307 308 307 306 306 306 310 310 309 308 307 306
309 303 302 303 302 302 307 315 321 318 318 310 309 309 308 306 306 306 306 307 307 305 305 306 306 304 304 303 303 306 304 306 305 305 306 306 306 306 306 310 309 308 307 305 305
302 300 298 299 301 303 309 316 318 317 312 309 310 310 310 308 306 306 306 306 306 305 306 307 307 304 304 303 303 303 305 307 308 309 307 306 305 306 310 309 308 307 306 305 305
302 303 297 300 302 304 310 316 317 307 306 308 310 311 311 309 307 307 308 306 306 305 305 305 305 305 303 303 304 305 305 304 306 307 306 306 308 310 309 308 308 307 306 304 304
301 303 297 300 304 305 311 314 311 306 304 305 307 310 308 310 308 308 308 307 305 305 304 305 305 305 304 303 303 304 306 307 309 307 307 307 306 308 309 307 306 306 305 304 303
298 296 297 299 306 306 313 314 307 307 305 306 307 308 308 309 307 307 307 305 304 304 304 304 303 304 303 304 303 303 304 306 306 307 305 307 305 309 308 306 305 305 304 303 302
299 301 299 298 301 307 312 313 306 305 306 305 305 305 306 306 306 306 306 304 303 303 303 304 303 304 304 305 306 304 304 304 305 306 305 305 305 305 307 306 305 303 302 301 301
302 304 304 305 305 308 310 310 307 304 304 304 304 305 306 306 306 306 305 303 302 303 301 303 303 303 302 303 303 304 304 303 303 304 304 304 304 306 306 305 303 302 301 300 299
299 306 305 308 306 307 310 310 309 305 304 304 305 304 304 306 307 305 304 304 303 303 302 303 306 305 304 302 302 302 303 303 303 304 304 304 304 306 303 303 302 301 299 298 298
299 305 307 308 307 308 310 311 310 307 305 305 304 304 305 304 305 305 305 304 304 304 305 306 306 305 304 303 304 305 304 304 304 305 306 305 305 303 302 301 301 299 298 297 297